Kittilä Airport

Airport
ICAO code: 
EFKT
IATA Code: 
KTT
Summary
ICAO Region: 
EUR
Territory: 
Location: 
Kittilä, Lapland
Serving: 
Kittilä
Elevation: 
644 ft
Coordinates: 
Aerial View: 
67° 41' 42.185" N, 24° 51' 3.249" E
Airport CFIT: 
Altimeter Temperature Error Correction
Airport GND: 
Aircraft Ground De/Anti Icing
Airport RE: 
Landing on Contaminated Runways
Metar
Observation
EFKT 192150Z AUTO 27003KT 230V310 CAVOK M05/M07 Q0980
Station
Kittila
Date/Time
2022-01-19 21:50:00
Wind direction
270°
Wind speed
03 kts
Lowest cloud amount
clouds and visibility OK
Temperature
-5°C
Dew point
-7°C
Humidity
85%
QNH
980 hPa
Weather condition
n/a

Description

Largely domestic but also international airport located in Kittilä, Finland.

Climatology

Subarctic climate (Köppen climate classification Dfc) - long, usually very cold winters, and short, cool to mild summers.

Runways

Designator Length Width Surface Rops
16/34 2500 45 ASP Yes/Yes
Airport map: 
Aerial View: 

Accidents and Serious Incidents at or in the vicinity of EFKT

SKYbrary Partners:

Safety knowledge contributed by: